Waarnemingen

Advertentie
Mijn weer
Hoburg A, Zweden (2679): temperatuur & dauwpunt: 18.02.2018 13:00:00 - 24.02.2018 13:00:00 (CET)Hoburg A, Zweden (2679): windsnelheid & windstoten: 18.02.2018 13:00:00 - 24.02.2018 13:00:00 (CET)Hoburg A, Zweden (2679): windrichting: 18.02.2018 13:00:00 - 24.02.2018 13:00:00 (CET)Hoburg A, Zweden (2679): luchtdruk: 18.02.2018 13:00:00 - 24.02.2018 13:00:00 (CET)Hoburg A, Zweden (2679): zicht: 18.02.2018 13:00:00 - 24.02.2018 13:00:00 (CET)Hoburg A, Zweden (2679): neerslag: 18.02.2018 13:00:00 - 24.02.2018 13:00:00 (CET)
Datum & Tijd tt [°C] td [°C] ff [km/u] ff [kn] fx [km/u] fx [kn] dd ppp [hPa] vv [km] rr [mm]
24.02.2018 13:00:00 - - - - - - - - - -
24.02.2018 12:00:00 -3,9 -9,9 21 11 33 18 NO 1036,1 50 0,0
24.02.2018 11:00:00 -4,4 -9,4 21 12 33 18 ONO 1036,0 13 0,0
24.02.2018 10:00:00 -5,2 -7,2 15 8 33 18 NNO 1035,6 8 0,0
24.02.2018 09:00:00 -4,8 -8,7 16 8 33 18 N 1035,2 31 0,0
24.02.2018 08:00:00 -4,8 -10,8 20 11 38 20 ONO 1034,8 50 0,0
24.02.2018 07:00:00 -4,8 -10,8 21 11 38 20 NO 1034,4 50 0,0
24.02.2018 06:00:00 -4,7 -10,7 24 13 36 20 NO 1033,8 50 0,0
24.02.2018 05:00:00 -4,6 -10,4 23 12 44 24 NO 1033,0 37 0,0
24.02.2018 04:00:00 -4,4 -10,6 29 16 44 24 NO 1032,4 48 0,0
24.02.2018 03:00:00 -4,5 -10,1 21 11 43 23 NO 1031,7 50 0,0
24.02.2018 02:00:00 -5,0 -8,2 24 13 36 19 NNO 1031,4 47 0,0
24.02.2018 01:00:00 -5,3 -6,7 19 10 36 19 NNO 1030,9 7 0,2
24.02.2018 00:00:00 -5,1 -6,5 21 11 32 18 NNO 1030,4 3,9 0,3
23.02.2018 23:00:00 -5,0 -6,5 21 11 34 18 NNO 1030,0 3,1 0,1
23.02.2018 22:00:00 -4,7 -9,3 19 10 37 20 NNO 1029,4 50 0,0
23.02.2018 21:00:00 -5,0 -7,9 21 12 43 23 N 1028,8 50 0,1
23.02.2018 20:00:00 -4,6 -8,5 30 16 43 23 NNO 1028,3 20 0,0
23.02.2018 19:00:00 -4,0 -9,0 23 12 37 20 N 1027,4 50 0,0
23.02.2018 18:00:00 -3,6 -7,2 23 12 36 20 NNO 1026,9 50 0,0
23.02.2018 17:00:00 -2,6 -6,4 19 10 37 20 NNO 1026,2 50 0,0
23.02.2018 16:00:00 -2,1 -6,3 21 12 37 20 N 1025,7 50 0,0
23.02.2018 15:00:00 - - - - - - - - - -
23.02.2018 14:00:00 -1,0 -2,0 16 8 31 17 NNO 1025,0 44 0,4
23.02.2018 13:00:00 -0,9 -1,7 17 9 31 17 NNO 1025,0 5 1,0
23.02.2018 12:00:00 -0,7 -2,1 21 11 30 16 NNW 1025,2 12 0,2
23.02.2018 11:00:00 -1,4 -2,4 14 8 35 19 NNW 1025,3 6 0,0
23.02.2018 10:00:00 -1,9 -3,6 23 12 37 20 NW 1025,7 11 0,0
23.02.2018 09:00:00 -1,6 -4,4 28 15 38 21 WNW 1025,6 50 0,0
23.02.2018 08:00:00 -1,4 -3,9 29 16 38 21 WNW 1025,6 50 0,0
23.02.2018 07:00:00 -1,6 -3,2 28 15 36 19 WNW 1025,9 3,9 0,2
23.02.2018 06:00:00 -1,9 -3,6 26 14 36 19 W 1026,3 4,9 0,1
23.02.2018 05:00:00 -1,9 -3,9 25 14 33 18 W 1026,6 5 0,0
23.02.2018 04:00:00 -1,5 -4,7 22 12 29 16 W 1027,1 10 0,0
23.02.2018 03:00:00 -1,9 -4,9 20 11 28 15 WZW 1027,6 39 0,0
23.02.2018 02:00:00 -2,2 -6,6 19 10 27 14 WZW 1027,9 47 0,0
23.02.2018 01:00:00 -2,7 -7,2 16 9 22 12 ZW 1028,4 50 0,0
23.02.2018 00:00:00 -3,1 -8,0 13 7 17 9 ZW 1028,7 50 0,0
22.02.2018 23:00:00 -3,6 -7,9 9 5 14 8 ZW 1029,2 50 0,0
22.02.2018 22:00:00 -3,6 -8,6 9 5 12 7 ZZW 1029,4 50 0,0
22.02.2018 21:00:00 -4,0 -8,7 5 3 8 4 ZZW 1029,7 50 0,0
22.02.2018 20:00:00 -3,9 -9,3 0 0 4 2 N 1029,8 50 0,0
22.02.2018 19:00:00 -3,8 -9,4 3 1 4 2 OZO 1029,8 50 0,0
22.02.2018 18:00:00 -3,8 -9,6 0 0 7 4 N 1030,0 50 0,0
22.02.2018 17:00:00 -3,8 -9,2 3 1 10 6 ZZO 1030,0 50 0,0
22.02.2018 16:00:00 -2,8 -9,3 6 3 14 8 ZO 1029,9 50 0,0
22.02.2018 15:00:00 -2,5 -9,4 7 4 18 10 ZO 1030,3 50 0,0
22.02.2018 14:00:00 -2,5 -9,2 8 4 20 11 OZO 1030,6 50 0,0
22.02.2018 13:00:00 -1,8 -8,8 10 6 20 11 ZO 1030,9 45 0,0
22.02.2018 12:00:00 -2,9 -9,0 13 7 22 12 ZO 1030,8 50 0,0
22.02.2018 11:00:00 -3,0 -8,7 14 8 24 13 OZO 1031,0 50 0,0
22.02.2018 10:00:00 -2,5 -8,2 15 8 24 13 OZO 1030,9 50 0,0
22.02.2018 09:00:00 -3,4 -9,0 14 8 23 13 OZO 1030,6 50 0,0
22.02.2018 08:00:00 -3,5 -8,6 15 8 21 12 OZO 1030,3 50 0,0
22.02.2018 07:00:00 -4,5 -9,3 11 6 20 11 OZO 1029,9 50 0,0
22.02.2018 06:00:00 -4,3 -9,5 13 7 20 11 O 1029,7 50 0,0
22.02.2018 05:00:00 -4,4 -9,0 14 7 20 11 OZO 1029,6 50 0,0
22.02.2018 04:00:00 -4,0 -8,5 13 7 24 13 OZO 1029,5 50 0,0
22.02.2018 03:00:00 -4,0 -8,5 14 8 25 13 OZO 1029,2 50 0,0
22.02.2018 02:00:00 -3,4 -7,5 18 10 26 14 OZO 1029,0 50 0,0
22.02.2018 01:00:00 -3,1 -7,3 18 10 26 14 OZO 1029,1 50 0,0
22.02.2018 00:00:00 -2,6 -6,2 18 10 26 14 OZO 1028,8 50 0,0
21.02.2018 23:00:00 -2,4 -5,5 18 10 28 15 OZO 1028,5 11 0,0
21.02.2018 22:00:00 -2,5 -5,0 18 10 28 15 OZO 1028,2 12 0,0
21.02.2018 21:00:00 -2,7 -4,6 16 8 21 12 OZO 1027,8 21 0,0
21.02.2018 20:00:00 -3,7 -7,1 7 4 11 6 NNO 1027,5 50 0,0
21.02.2018 19:00:00 -3,7 -6,5 9 5 11 6 NO 1027,1 50 0,0
21.02.2018 18:00:00 -3,4 -6,5 6 3 11 6 NO 1026,7 50 0,0
21.02.2018 17:00:00 -3,0 -6,1 6 4 12 6 NNO 1026,4 50 0,0
21.02.2018 16:00:00 -2,5 -6,1 8 4 13 7 N 1026,2 50 0,0
21.02.2018 15:00:00 -2,1 -6,8 8 4 13 7 N 1026,0 50 0,0
21.02.2018 14:00:00 -1,6 -6,9 8 4 13 7 N 1026,2 50 0,0
21.02.2018 13:00:00 -1,7 -6,6 8 4 13 7 N 1026,5 50 0,0
21.02.2018 12:00:00 -2,0 -7,3 8 4 16 8 N 1026,3 50 0,0
21.02.2018 11:00:00 -2,0 -5,8 10 6 17 9 NO 1026,2 50 0,0
21.02.2018 10:00:00 -3,5 -6,3 6 4 17 9 NNO 1026,2 50 0,0
21.02.2018 09:00:00 -3,4 -5,9 11 6 17 9 N 1026,1 50 0,0
21.02.2018 08:00:00 -3,6 -4,7 13 7 17 9 NO 1025,5 19 0,0
21.02.2018 07:00:00 -3,4 -4,2 6 4 15 8 NO 1025,5 9 0,2
21.02.2018 06:00:00 -3,3 -4,1 8 4 15 8 NO 1025,6 4,0 0,2
21.02.2018 05:00:00 -3,2 -4,0 5 3 11 6 NO 1025,9 7 0,0
21.02.2018 04:00:00 -3,0 -3,8 3 2 12 7 N 1026,0 9 0,3
21.02.2018 03:00:00 -3,3 -4,1 5 3 12 7 NNO 1026,5 3,4 0,3
21.02.2018 02:00:00 -3,2 -4,9 6 3 11 6 NO 1026,7 4,3 0,0
21.02.2018 01:00:00 -3,2 -5,8 9 5 12 6 N 1026,9 50 0,0
21.02.2018 00:00:00 -2,5 -4,8 9 5 13 7 N 1027,0 20 0,0
20.02.2018 23:00:00 -3,1 -4,5 9 5 14 8 N 1026,9 47 0,0
20.02.2018 22:00:00 -3,0 -4,4 9 5 14 8 NNO 1027,0 45 0,0
20.02.2018 21:00:00 -3,1 -4,2 10 6 16 9 NNO 1027,0 28 0,0
20.02.2018 20:00:00 -3,0 -4,1 10 5 16 9 NNO 1027,0 23 0,0
20.02.2018 19:00:00 -2,9 -4,3 10 5 12 6 NO 1026,8 40 0,0
20.02.2018 18:00:00 -2,7 -4,3 9 5 14 8 NNO 1026,6 48 0,0
20.02.2018 17:00:00 -2,5 -4,8 8 4 14 8 NO 1026,3 49 0,0
20.02.2018 16:00:00 -1,4 -4,9 8 4 13 7 NO 1026,4 50 0,0
20.02.2018 15:00:00 -0,9 -4,3 9 5 18 10 NO 1026,7 50 0,0
20.02.2018 14:00:00 -0,6 -3,8 10 6 21 11 NO 1026,7 49 0,0
20.02.2018 13:00:00 -0,4 -3,3 14 8 23 12 ONO 1026,6 41 0,0
20.02.2018 12:00:00 -0,6 -3,8 16 8 23 12 NO 1026,8 48 0,0
20.02.2018 11:00:00 -1,0 -3,7 13 7 20 11 NNO 1026,8 43 0,0
20.02.2018 10:00:00 -1,6 -3,9 10 6 18 10 NNO 1026,6 38 0,0
20.02.2018 09:00:00 -1,2 -3,7 8 5 21 12 NO 1026,5 33 0,0
20.02.2018 08:00:00 -1,5 -4,0 12 6 21 12 ONO 1026,3 43 0,0
20.02.2018 07:00:00 -1,7 -3,9 15 8 23 13 ONO 1026,0 38 0,0
20.02.2018 06:00:00 -1,6 -3,9 13 7 26 14 ONO 1025,9 31 0,0
20.02.2018 05:00:00 -1,3 -3,3 14 8 26 14 ONO 1025,9 21 0,0
20.02.2018 04:00:00 -1,2 -3,4 19 10 31 17 O 1025,5 19 0,0
20.02.2018 03:00:00 -1,3 -2,4 19 10 32 17 O 1025,6 2,6 0,0
20.02.2018 02:00:00 -1,1 -2,8 21 11 32 17 O 1025,3 11 0,0
20.02.2018 01:00:00 -1,1 -2,7 23 12 33 18 O 1025,3 12 0,0
20.02.2018 00:00:00 -1,0 -2,4 25 13 33 18 ONO 1025,2 12 0,0
19.02.2018 23:00:00 -0,7 -1,5 21 12 34 18 ONO 1025,0 9 0,0
19.02.2018 22:00:00 -0,2 -0,6 23 13 34 18 ONO 1024,7 5 0,1
19.02.2018 21:00:00 0,0 -0,3 18 10 29 16 ONO 1024,5 5 0,1
19.02.2018 20:00:00 0,3 0,0 10 5 13 7 NO 1024,3 3,5 0,2
19.02.2018 19:00:00 0,2 -0,1 10 5 13 7 NO 1024,1 3,3 0,5
19.02.2018 18:00:00 0,2 -0,2 7 4 8 5 ONO 1023,9 1,6 0,4
19.02.2018 17:00:00 0,1 -0,3 2 1 9 5 ZO 1023,6 1,1 1,2
19.02.2018 16:00:00 0,3 -0,4 3 2 11 6 NNO 1023,3 1,6 1,1
19.02.2018 15:00:00 1,3 0,6 8 4 12 6 ZO 1023,1 4,6 0,1
19.02.2018 14:00:00 1,6 0,7 6 3 12 6 ZZO 1022,8 8 0,0
19.02.2018 13:00:00 1,4 0,8 9 5 12 6 ZZO 1022,8 6 0,0
19.02.2018 12:00:00 1,1 0,7 7 4 11 6 ZO 1023,0 4,7 0,0
19.02.2018 11:00:00 0,9 0,5 6 3 9 5 Z 1022,8 3,2 0,1
19.02.2018 10:00:00 0,4 0,0 5 3 7 4 Z 1022,7 1,8 0,4
19.02.2018 09:00:00 0,3 -0,3 4 2 13 7 ZW 1022,5 1,5 0,8
19.02.2018 08:00:00 0,4 -0,3 3 2 20 11 WZW 1022,3 1,7 0,4
19.02.2018 07:00:00 0,6 -0,7 9 5 20 11 W 1022,1 3,3 0,1
19.02.2018 06:00:00 0,8 -0,7 5 3 18 10 WZW 1022,0 13 0,0
19.02.2018 05:00:00 1,0 -0,2 13 7 18 10 W 1022,1 11 0,0
19.02.2018 04:00:00 0,9 -0,1 14 7 18 10 W 1022,3 9 0,1
19.02.2018 03:00:00 0,3 -0,6 8 4 21 11 WZW 1022,9 3,1 0,2
19.02.2018 02:00:00 0,7 -0,9 15 8 21 11 W 1023,3 16 0,1
19.02.2018 01:00:00 0,8 -1,3 9 5 22 12 WZW 1023,5 22 0,0
19.02.2018 00:00:00 0,8 -1,0 11 6 22 12 W 1023,8 50 0,0
18.02.2018 23:00:00 1,4 -0,8 15 8 19 11 W 1023,9 26 0,0
18.02.2018 22:00:00 1,1 -0,2 10 5 19 10 WNW 1024,2 27 0,1
18.02.2018 21:00:00 1,4 -0,2 14 8 19 10 WNW 1024,2 18 0,0
18.02.2018 20:00:00 1,3 -0,5 11 6 16 9 WNW 1024,5 33 0,0
18.02.2018 19:00:00 1,1 -0,8 12 7 22 12 WNW 1024,6 39 0,0
18.02.2018 18:00:00 1,2 -0,9 12 6 22 12 WNW 1024,7 37 0,0
18.02.2018 17:00:00 1,3 -0,9 13 7 18 10 W 1024,8 50 0,0
18.02.2018 16:00:00 0,9 -2,0 10 5 25 13 W 1025,0 46 0,0
18.02.2018 15:00:00 2,5 -1,3 13 7 25 13 W 1025,2 29 0,0
18.02.2018 14:00:00 1,8 -0,9 17 9 24 13 W 1025,3 23 0,0
18.02.2018 13:00:00 1,9 -0,2 14 8 19 11 W 1025,5 18 0,0

tt = temperatuur
td = dauwpunt
ff = windsnelheid
fx = windstoten
dd = windrichting
ppp = luchtdruk
vv = zicht
rr = neerslag

Weerstations in de omgeving